Flag for Germany Weather past 2 weeks in Radebeul, Saxony, Germany

Now
69 °F

Overcast.


Feels Like: 69 °F
Forecast: 54 / 68 °F
Wind: 6 mph from Southwest

Location: Dresden-Klotzsche

Current Time: Apr 25, 2015 at 2:07:55 PM

Latest Report: Apr 25, 2015 at 1:00 PM


Visibility: 19 mi

Pressure: 29.80 "Hg

Humidity: 27%

Dew point: 34 °F

Location of RadebeulLocation

Historic Weather in Radebeul — Graph

°F

Radebeul temperature yesterday

Maximum temperature yesterday: 67 °F (at 6:00 PM)
Minimum temperature yesterday: 41 °F (at 6:00 AM)
Average temperature yesterday: 55 °F

Past Weeks' High & Low Weather Summary

 TemperatureHumidityPressure
High71 °F (Apr 15, 6:00 PM)97% (Apr 23, 6:00 AM)30.47 "Hg (Apr 23, 6:00 AM)
Low33 °F (Apr 19, 6:00 AM)24% (Apr 21, 4:00 PM)29.80 "Hg (Apr 25, 1:00 PM)
Average51 °F61%30.15 "Hg
* Reported Apr 10 1:00 PM — Apr 25 1:00 PM, Radebeul, Weather by CustomWeather, © 2015

Note: Actual official high and low records may vary slightly from our data, if they occured in-between our weather recording intervals... More about our weather records

Advertising

Radebeul weather history for previous 24 hours

 ConditionsComfort  
Time TempWeatherWind HumidityBarometerVisibility
1:00 PM
Sat, Apr 25
69 °FOvercast.6 mph27%29.80 "Hg19 mi
12:00 PM67 °FOvercast.5 mph32%29.82 "Hg17 mi
10:00 AM62 °FPartly sunny.6 mph45%29.85 "Hg17 mi
9:00 AM58 °FPartly sunny.6 mph51%29.85 "Hg17 mi
8:00 AM53 °FPartly sunny.6 mph59%29.86 "Hg19 mi
7:00 AM50 °FPartly sunny.6 mph63%29.87 "Hg19 mi
6:00 AM49 °FScattered clouds.6 mph64%29.86 "Hg22 mi
3:00 AM51 °FClear.6 mph63%29.89 "Hg19 mi
1:00 AM52 °FPassing clouds.5 mph65%29.90 "Hg16 mi
12:00 AM53 °FPassing clouds.6 mph63%29.90 "Hg16 mi
10:00 PM
Fri, Apr 24
61 °FPassing clouds.3 mph43%29.89 "Hg16 mi
9:00 PM60 °FPassing clouds.1 mph43%29.88 "Hg16 mi
8:00 PM62 °FScattered clouds.2 mph42%29.88 "Hg22 mi
7:00 PM65 °FPassing clouds.3 mph42%29.87 "Hg25 mi
6:00 PM67 °FPassing clouds.3 mph38%29.87 "Hg25 mi
4:00 PM66 °FPassing clouds.5 mph37%29.90 "Hg25 mi
3:00 PM66 °FPassing clouds.5 mph36%29.92 "Hg25 mi
2:00 PM64 °FPassing clouds.5 mph42%29.94 "Hg22 mi
Weather by CustomWeather, © 2015

See weather overviewHow to use our weather pages